QPF
0.00 0.00 0.00 0.00 0.02 0.03 0.02 0.01 0.00 0.00 0.00 0.00 0.00 0.00 0.00 0.00 0.02 0.04 0.01 0.00 0.00 0.00 0.00 0.00 0.01 0.02 0.02 0.02 0.03 0.02 0.02 0.02 0.02 0.02 0.02 0.02 0.02 0.02 0.03 0.04 0.05 0.05 0.04 0.03 0.03 0.03 0.03 0.03 0.03
0.00 0.00 0.00 0.01 0.05 0.04 0.01 0.00 0.00 0.00 0.00 0.00 0.00 0.00 0.00 0.00 0.00 0.00 0.00 0.00 0.00 0.00 0.00 0.00 0.00 0.02 0.02 0.02 0.02 0.03 0.03 0.03 0.02 0.02 0.02 0.02 0.02 0.02 0.03 0.05 0.06 0.07 0.06 0.07 0.05 0.03 0.02 0.02 0.03
0.00 0.00 0.00 0.04 0.09 0.05 0.01 0.00 0.00 0.00 0.00 0.00 0.00 0.00 0.00 0.00 0.00 0.00 0.00 0.00 0.00 0.00 0.00 0.00 0.00 0.00 0.01 0.01 0.02 0.02 0.02 0.02 0.02 0.02 0.03 0.03 0.04 0.04 0.04 0.05 0.06 0.07 0.08 0.08 0.06 0.04 0.03 0.02 0.02
0.00 0.00 0.01 0.02 0.05 0.02 0.01 0.00 0.00 0.00 0.00 0.00 0.00 0.00 0.00 0.00 0.00 0.00 0.00 0.00 0.00 0.00 0.00 0.00 0.00 0.00 0.00 0.00 0.01 0.01 0.02 0.02 0.02 0.03 0.07 0.07 0.05 0.05 0.05 0.06 0.06 0.06 0.07 0.06 0.06 0.06 0.05 0.04 0.05
0.00 0.00 0.01 0.01 0.01 0.01 0.00 0.00 0.00 0.00 0.00 0.00 0.00 0.00 0.00 0.00 0.00 0.00 0.00 0.00 0.00 0.00 0.00 0.00 0.00 0.00 0.00 0.00 0.01 0.01 0.01 0.01 0.02 0.02 0.04 0.07 0.06 0.03 0.04 0.08 0.05 0.03 0.04 0.05 0.05 0.05 0.05 0.06 0.08
0.00 0.00 0.01 0.01 0.01 0.00 0.00 0.00 0.00 0.00 0.00 0.00 0.00 0.00 0.00 0.00 0.00 0.00 0.00 0.00 0.00 0.00 0.00 0.00 0.00 0.00 0.00 0.00 0.01 0.01 0.01 0.01 0.01 0.01 0.01 0.02 0.02 0.01 0.01 0.04 0.03 0.02 0.02 0.04 0.04 0.04 0.05 0.07 0.07
0.00 0.00 0.01 0.01 0.02 0.01 0.00 0.00 0.00 0.00 0.00 0.00 0.00 0.00 0.00 0.00 0.00 0.00 0.00 0.00 0.00 0.00 0.00 0.00 0.00 0.00 0.00 0.00 0.00 0.00 0.01 0.01 0.01 0.01 0.01 0.01 0.01 0.01 0.01 0.01 0.02 0.01 0.02 0.02 0.03 0.04 0.05 0.07 0.07
0.00 0.00 0.01 0.02 0.02 0.01 0.00 0.00 0.00 0.00 0.00 0.00 0.00 0.00 0.00 0.00 0.00 0.00 0.00 0.00 0.00 0.00 0.00 0.00 0.00 0.00 0.01 0.01 0.00 0.00 0.00 0.01 0.01 0.00 0.00 0.00 0.01 0.01 0.02 0.01 0.02 0.01 0.01 0.02 0.03 0.03 0.03 0.04 0.05
0.00 0.00 0.01 0.01 0.01 0.00 0.00 0.00 0.00 0.00 0.00 0.00 0.00 0.00 0.00 0.00 0.00 0.00 0.00 0.00 0.00 0.00 0.00 0.00 0.00 0.00 0.01 0.01 0.00 0.00 0.00 0.00 0.00 0.01 0.01 0.01 0.03 0.04 0.03 0.02 0.01 0.01 0.01 0.02 0.04 0.04 0.02 0.03 0.04
0.00 0.00 0.00 0.00 0.00 0.00 0.00 0.00 0.00 0.00 0.00 0.01 0.00 0.00 0.00 0.00 0.00 0.00 0.00 0.00 0.00 0.00 0.00 0.00 0.00 0.00 0.01 0.01 0.01 0.02 0.01 0.01 0.01 0.02 0.03 0.05 0.08 0.08 0.06 0.04 0.01 0.01 0.02 0.02 0.04 0.06 0.04 0.03 0.03
0.01 0.01 0.01 0.00 0.00 0.00 0.00 0.00 0.00 0.00 0.00 0.01 0.00 0.00 0.00 0.00 0.00 0.00 0.00 0.00 0.00 0.00 0.00 0.00 0.00 0.00 0.00 0.01 0.01 0.03 0.03 0.03 0.03 0.04 0.04 0.06 0.07 0.07 0.06 0.05 0.04 0.03 0.03 0.03 0.04 0.05 0.06 0.06 0.07
0.00 0.00 0.00 0.00 0.00 0.00 0.00 0.00 0.00 0.00 0.00 0.00 0.00 0.00 0.00 0.00 0.00 0.00 0.00 0.00 0.00 0.00 0.00 0.00 0.00 0.00 0.00 0.01 0.01 0.02 0.03 0.07 0.06 0.04 0.03 0.04 0.05 0.05 0.05 0.05 0.05 0.04 0.04 0.05 0.05 0.07 0.06 0.04 0.04
0.00 0.01 0.00 0.00 0.00 0.00 0.00 0.00 0.00 0.00 0.00 0.00 0.01 0.00 0.00 0.00 0.00 0.00 0.00 0.00 0.00 0.00 0.00 0.00 0.00 0.00 0.00 0.01 0.02 0.02 0.03 0.06 0.03 0.02 0.02 0.03 0.03 0.03 0.03 0.03 0.03 0.04 0.04 0.04 0.05 0.06 0.06 0.04 0.04
0.00 0.00 0.00 0.00 0.00 0.00 0.00 0.00 0.01 0.00 0.00 0.00 0.00 0.00 0.00 0.00 0.00 0.00 0.00 0.00 0.00 0.00 0.00 0.00 0.00 0.00 0.00 0.01 0.01 0.02 0.03 0.03 0.01 0.02 0.03 0.02 0.02 0.02 0.03 0.03 0.03 0.04 0.03 0.04 0.05 0.05 0.06 0.06 0.06
0.00 0.00 0.00 0.00 0.00 0.00 0.00 0.02 0.01 0.00 0.00 0.00 0.00 0.00 0.00 0.00 0.00 0.00 0.00 0.00 0.00 0.00 0.00 0.00 0.00 0.00 0.00 0.01 0.02 0.03 0.02 0.03 0.02 0.02 0.02 0.02 0.02 0.03 0.02 0.02 0.03 0.04 0.03 0.04 0.05 0.05 0.06 0.06 0.05
0.00 0.00 0.00 0.00 0.00 0.00 0.00 0.02 0.01 0.00 0.00 0.00 0.00 0.00 0.00 0.00 0.00 0.00 0.00 0.00 0.00 0.00 0.00 0.00 0.00 0.00 0.00 0.01 0.02 0.02 0.02 0.02 0.02 0.02 0.02 0.02 0.03 0.02 0.03 0.03 0.03 0.04 0.04 0.04 0.06 0.08 0.06 0.06 0.06
0.00 0.00 0.02 0.03 0.01 0.00 0.00 0.01 0.01 0.00 0.00 0.00 0.00 0.01 0.01 0.01 0.01 0.01 0.01 0.00 0.00 0.00 0.00 0.00 0.00 0.01 0.01 0.01 0.01 0.02 0.02 0.02 0.03 0.02 0.03 0.02 0.03 0.03 0.03 0.04 0.04 0.04 0.05 0.06 0.06 0.07 0.06 0.06 0.05
0.01 0.00 0.02 0.04 0.02 0.01 0.01 0.00 0.00 0.00 0.00 0.01 0.01 0.01 0.01 0.02 0.02 0.02 0.02 0.01 0.02 0.01 0.00 0.00 0.00 0.01 0.01 0.01 0.01 0.02 0.02 0.03 0.04 0.04 0.05 0.04 0.04 0.03 0.04 0.05 0.04 0.04 0.05 0.06 0.08 0.08 0.06 0.06 0.06
0.01 0.01 0.01 0.01 0.03 0.04 0.02 0.01 0.00 0.00 0.01 0.01 0.01 0.02 0.02 0.03 0.03 0.02 0.02 0.01 0.02 0.01 0.00 0.01 0.01 0.01 0.01 0.02 0.02 0.03 0.03 0.03 0.04 0.04 0.04 0.04 0.03 0.04 0.06 0.05 0.05 0.04 0.05 0.06 0.07 0.07 0.05 0.05 0.06
0.00 0.00 0.01 0.02 0.01 0.01 0.01 0.00 0.00 0.00 0.00 0.01 0.01 0.01 0.02 0.02 0.02 0.01 0.01 0.01 0.01 0.01 0.00 0.01 0.01 0.01 0.01 0.02 0.02 0.02 0.02 0.02 0.02 0.03 0.04 0.04 0.04 0.06 0.06 0.06 0.05 0.05 0.06 0.06 0.08 0.07 0.06 0.04 0.05
0.00 0.00 0.00 0.02 0.01 0.01 0.01 0.02 0.02 0.01 0.01 0.01 0.01 0.01 0.01 0.01 0.02 0.01 0.01 0.01 0.01 0.01 0.00 0.01 0.01 0.01 0.02 0.02 0.02 0.02 0.02 0.02 0.03 0.04 0.04 0.03 0.04 0.05 0.06 0.05 0.06 0.06 0.05 0.06 0.08 0.08 0.06 0.05 0.06
0.00 0.00 0.00 0.00 0.02 0.01 0.01 0.02 0.02 0.02 0.02 0.01 0.01 0.01 0.01 0.02 0.02 0.01 0.01 0.00 0.00 0.01 0.01 0.01 0.01 0.01 0.02 0.03 0.03 0.02 0.02 0.03 0.03 0.03 0.04 0.04 0.03 0.04 0.05 0.06 0.06 0.06 0.04 0.05 0.06 0.07 0.07 0.06 0.05
0.00 0.00 0.00 0.00 0.00 0.01 0.00 0.01 0.02 0.02 0.01 0.01 0.02 0.01 0.01 0.01 0.02 0.02 0.01 0.01 0.00 0.01 0.01 0.02 0.02 0.02 0.02 0.02 0.02 0.03 0.03 0.04 0.04 0.04 0.06 0.06 0.04 0.04 0.06 0.06 0.06 0.07 0.06 0.06 0.06 0.08 0.09 0.07 0.06
0.00 0.00 0.00 0.00 0.00 0.01 0.00 0.00 0.01 0.02 0.02 0.02 0.01 0.02 0.02 0.02 0.02 0.02 0.02 0.01 0.00 0.01 0.01 0.02 0.02 0.02 0.02 0.01 0.02 0.02 0.02 0.04 0.06 0.06 0.05 0.04 0.05 0.04 0.05 0.05 0.06 0.06 0.06 0.07 0.06 0.08 0.10 0.11 0.10
0.01 0.02 0.02 0.02 0.01 0.01 0.00 0.00 0.02 0.02 0.03 0.02 0.01 0.01 0.01 0.02 0.02 0.03 0.03 0.01 0.01 0.01 0.01 0.02 0.03 0.02 0.02 0.02 0.02 0.02 0.03 0.04 0.05 0.05 0.05 0.05 0.05 0.05 0.05 0.04 0.04 0.04 0.05 0.06 0.07 0.08 0.09 0.10 0.09
0.00 0.01 0.02 0.02 0.02 0.02 0.01 0.01 0.01 0.01 0.02 0.01 0.01 0.01 0.01 0.02 0.02 0.02 0.01 0.00 0.00 0.00 0.01 0.01 0.03 0.03 0.03 0.03 0.03 0.03 0.04 0.05 0.05 0.05 0.04 0.04 0.05 0.04 0.03 0.02 0.03 0.03 0.03 0.04 0.06 0.05 0.05 0.06 0.07
0.00 0.00 0.01 0.01 0.01 0.02 0.02 0.02 0.01 0.02 0.02 0.01 0.01 0.01 0.02 0.02 0.02 0.02 0.01 0.00 0.00 0.01 0.01 0.01 0.02 0.03 0.04 0.04 0.04 0.04 0.04 0.04 0.04 0.04 0.03 0.03 0.03 0.03 0.03 0.02 0.02 0.02 0.02 0.03 0.04 0.04 0.04 0.05 0.05
0.00 0.00 0.00 0.01 0.01 0.01 0.01 0.02 0.02 0.02 0.03 0.03 0.01 0.01 0.01 0.02 0.01 0.01 0.01 0.01 0.01 0.01 0.01 0.01 0.02 0.03 0.04 0.04 0.04 0.04 0.04 0.03 0.03 0.04 0.03 0.03 0.04 0.04 0.04 0.02 0.01 0.01 0.02 0.03 0.04 0.04 0.03 0.04 0.04
0.00 0.00 0.01 0.01 0.01 0.01 0.02 0.03 0.02 0.03 0.03 0.03 0.02 0.01 0.01 0.01 0.01 0.01 0.02 0.02 0.01 0.01 0.01 0.01 0.03 0.03 0.03 0.03 0.02 0.02 0.02 0.02 0.03 0.03 0.02 0.03 0.03 0.03 0.03 0.02 0.02 0.01 0.01 0.02 0.02 0.02 0.03 0.03 0.03
0.00 0.00 0.00 0.00 0.01 0.01 0.02 0.03 0.01 0.02 0.05 0.04 0.01 0.01 0.01 0.01 0.01 0.01 0.01 0.01 0.01 0.01 0.02 0.02 0.03 0.04 0.04 0.02 0.02 0.03 0.02 0.03 0.03 0.03 0.03 0.03 0.03 0.02 0.03 0.02 0.01 0.01 0.01 0.02 0.02 0.01 0.02 0.02 0.03
MSLP
1005.34 1005.76 1006.31 1006.86 1007.30 1007.56 1007.62 1007.51 1007.31 1007.11 1006.99 1007.02 1007.20 1007.48 1007.83 1008.16 1008.43 1008.64 1008.80 1008.97 1009.22 1009.59 1010.09 1010.69 1011.34 1011.93 1012.42 1012.73 1012.88 1012.89 1012.83 1012.78 1012.79 1012.91 1013.14 1013.43 1013.74 1014.01 1014.20 1014.30 1014.33 1014.33 1014.33 1014.37 1014.45 1014.57 1014.69 1014.78 1014.83
1005.55 1006.03 1006.59 1007.09 1007.44 1007.60 1007.57 1007.40 1007.16 1006.95 1006.85 1006.89 1007.06 1007.33 1007.64 1007.92 1008.16 1008.35 1008.54 1008.78 1009.13 1009.62 1010.24 1010.94 1011.65 1012.28 1012.77 1013.06 1013.18 1013.18 1013.13 1013.10 1013.16 1013.32 1013.58 1013.88 1014.17 1014.40 1014.54 1014.59 1014.58 1014.56 1014.58 1014.65 1014.77 1014.93 1015.09 1015.19 1015.22
1005.89 1006.40 1006.92 1007.33 1007.57 1007.60 1007.46 1007.21 1006.95 1006.75 1006.69 1006.77 1006.98 1007.26 1007.54 1007.79 1007.99 1008.16 1008.34 1008.60 1009.01 1009.56 1010.26 1011.03 1011.80 1012.48 1012.99 1013.31 1013.46 1013.49 1013.48 1013.50 1013.61 1013.81 1014.08 1014.37 1014.62 1014.79 1014.86 1014.85 1014.80 1014.77 1014.79 1014.90 1015.07 1015.27 1015.44 1015.54 1015.55
1006.28 1006.79 1007.24 1007.53 1007.62 1007.52 1007.27 1006.95 1006.67 1006.52 1006.51 1006.67 1006.93 1007.25 1007.54 1007.77 1007.92 1008.04 1008.19 1008.43 1008.84 1009.41 1010.15 1010.97 1011.79 1012.51 1013.07 1013.45 1013.66 1013.77 1013.83 1013.92 1014.09 1014.33 1014.60 1014.86 1015.07 1015.17 1015.18 1015.12 1015.03 1014.99 1015.03 1015.16 1015.36 1015.58 1015.77 1015.86 1015.83
1006.65 1007.11 1007.46 1007.61 1007.55 1007.30 1006.96 1006.60 1006.33 1006.23 1006.32 1006.57 1006.91 1007.28 1007.59 1007.81 1007.92 1007.99 1008.08 1008.28 1008.65 1009.21 1009.95 1010.79 1011.64 1012.41 1013.03 1013.48 1013.78 1013.97 1014.12 1014.30 1014.52 1014.79 1015.07 1015.31 1015.47 1015.53 1015.49 1015.40 1015.30 1015.25 1015.30 1015.45 1015.66 1015.89 1016.05 1016.12 1016.05
1006.90 1007.28 1007.49 1007.49 1007.29 1006.93 1006.52 1006.14 1005.91 1005.90 1006.09 1006.45 1006.90 1007.34 1007.68 1007.90 1007.98 1008.00 1008.04 1008.18 1008.50 1009.03 1009.74 1010.58 1011.44 1012.24 1012.91 1013.42 1013.79 1014.07 1014.30 1014.54 1014.82 1015.11 1015.40 1015.64 1015.78 1015.83 1015.77 1015.67 1015.58 1015.54 1015.60 1015.75 1015.96 1016.16 1016.30 1016.32 1016.21
1006.99 1007.24 1007.32 1007.17 1006.84 1006.40 1005.95 1005.59 1005.43 1005.52 1005.83 1006.32 1006.87 1007.39 1007.78 1008.02 1008.10 1008.10 1008.10 1008.20 1008.47 1008.96 1009.63 1010.43 1011.28 1012.08 1012.77 1013.31 1013.73 1014.05 1014.34 1014.62 1014.93 1015.25 1015.55 1015.80 1015.96 1016.01 1015.98 1015.90 1015.84 1015.82 1015.89 1016.03 1016.22 1016.38 1016.47 1016.43 1016.28
1006.91 1007.03 1006.96 1006.68 1006.26 1005.76 1005.30 1005.00 1004.92 1005.12 1005.55 1006.16 1006.81 1007.42 1007.88 1008.16 1008.28 1008.28 1008.28 1008.36 1008.61 1009.05 1009.68 1010.43 1011.24 1012.00 1012.66 1013.20 1013.61 1013.95 1014.24 1014.53 1014.85 1015.19 1015.50 1015.77 1015.96 1016.06 1016.08 1016.05 1016.03 1016.05 1016.12 1016.25 1016.40 1016.51 1016.53 1016.45 1016.26
1006.73 1006.71 1006.49 1006.11 1005.61 1005.09 1004.66 1004.42 1004.44 1004.74 1005.28 1005.98 1006.73 1007.41 1007.95 1008.29 1008.46 1008.52 1008.55 1008.65 1008.90 1009.32 1009.91 1010.61 1011.34 1012.04 1012.64 1013.12 1013.49 1013.79 1014.05 1014.33 1014.63 1014.96 1015.28 1015.58 1015.81 1015.96 1016.04 1016.09 1016.12 1016.17 1016.25 1016.36 1016.46 1016.52 1016.49 1016.36 1016.15
1006.53 1006.37 1006.03 1005.57 1005.03 1004.52 1004.13 1003.96 1004.06 1004.44 1005.06 1005.82 1006.62 1007.36 1007.96 1008.38 1008.62 1008.76 1008.86 1009.02 1009.29 1009.72 1010.27 1010.91 1011.57 1012.18 1012.69 1013.09 1013.39 1013.61 1013.82 1014.05 1014.32 1014.62 1014.95 1015.26 1015.53 1015.74 1015.89 1015.99 1016.08 1016.16 1016.24 1016.33 1016.40 1016.41 1016.34 1016.19 1015.97
1006.40 1006.12 1005.69 1005.17 1004.62 1004.13 1003.80 1003.69 1003.84 1004.26 1004.90 1005.67 1006.49 1007.25 1007.88 1008.36 1008.69 1008.92 1009.12 1009.35 1009.68 1010.12 1010.66 1011.24 1011.83 1012.35 1012.78 1013.09 1013.30 1013.46 1013.60 1013.78 1014.00 1014.27 1014.58 1014.90 1015.20 1015.45 1015.64 1015.79 1015.91 1016.01 1016.10 1016.17 1016.21 1016.20 1016.11 1015.96 1015.75
1006.39 1006.02 1005.54 1004.99 1004.46 1004.02 1003.73 1003.66 1003.83 1004.23 1004.83 1005.55 1006.32 1007.05 1007.68 1008.20 1008.60 1008.92 1009.22 1009.55 1009.94 1010.41 1010.94 1011.50 1012.03 1012.48 1012.83 1013.08 1013.23 1013.34 1013.43 1013.55 1013.73 1013.97 1014.26 1014.56 1014.85 1015.12 1015.34 1015.52 1015.66 1015.77 1015.86 1015.92 1015.95 1015.92 1015.85 1015.72 1015.55
1006.52 1006.10 1005.60 1005.08 1004.58 1004.19 1003.94 1003.88 1004.02 1004.35 1004.85 1005.45 1006.10 1006.75 1007.34 1007.86 1008.31 1008.71 1009.10 1009.52 1009.97 1010.48 1011.02 1011.56 1012.05 1012.47 1012.79 1013.01 1013.15 1013.23 1013.31 1013.41 1013.56 1013.77 1014.02 1014.29 1014.56 1014.82 1015.03 1015.21 1015.35 1015.46 1015.55 1015.61 1015.65 1015.64 1015.59 1015.51 1015.39
1006.75 1006.33 1005.86 1005.38 1004.95 1004.61 1004.39 1004.30 1004.37 1004.58 1004.92 1005.35 1005.83 1006.34 1006.85 1007.34 1007.81 1008.26 1008.72 1009.21 1009.72 1010.26 1010.82 1011.36 1011.85 1012.27 1012.60 1012.84 1013.01 1013.13 1013.23 1013.34 1013.49 1013.67 1013.89 1014.12 1014.35 1014.57 1014.75 1014.91 1015.04 1015.15 1015.24 1015.32 1015.37 1015.40 1015.40 1015.36 1015.31
1007.01 1006.62 1006.21 1005.81 1005.47 1005.18 1004.98 1004.86 1004.82 1004.87 1005.01 1005.22 1005.51 1005.86 1006.25 1006.68 1007.15 1007.63 1008.14 1008.68 1009.23 1009.80 1010.37 1010.91 1011.42 1011.87 1012.25 1012.56 1012.81 1013.00 1013.17 1013.33 1013.49 1013.66 1013.84 1014.03 1014.21 1014.38 1014.52 1014.65 1014.77 1014.88 1014.97 1015.07 1015.15 1015.22 1015.27 1015.29 1015.30
1007.20 1006.87 1006.55 1006.26 1006.02 1005.80 1005.61 1005.43 1005.27 1005.14 1005.06 1005.05 1005.13 1005.31 1005.59 1005.96 1006.41 1006.91 1007.46 1008.02 1008.60 1009.18 1009.76 1010.32 1010.85 1011.34 1011.80 1012.20 1012.55 1012.85 1013.11 1013.33 1013.52 1013.69 1013.84 1013.98 1014.11 1014.23 1014.34 1014.44 1014.54 1014.65 1014.77 1014.88 1015.00 1015.11 1015.21 1015.28 1015.32
1007.24 1007.00 1006.80 1006.64 1006.50 1006.36 1006.18 1005.94 1005.65 1005.34 1005.05 1004.83 1004.72 1004.76 1004.94 1005.26 1005.70 1006.22 1006.79 1007.38 1007.97 1008.54 1009.11 1009.67 1010.23 1010.77 1011.30 1011.80 1012.27 1012.67 1013.03 1013.31 1013.53 1013.71 1013.83 1013.93 1014.01 1014.09 1014.17 1014.26 1014.36 1014.48 1014.61 1014.75 1014.89 1015.03 1015.16 1015.27 1015.34
1007.12 1006.97 1006.91 1006.89 1006.87 1006.79 1006.62 1006.32 1005.91 1005.43 1004.96 1004.56 1004.29 1004.22 1004.34 1004.64 1005.09 1005.65 1006.24 1006.85 1007.43 1008.00 1008.55 1009.10 1009.66 1010.24 1010.83 1011.41 1011.97 1012.47 1012.91 1013.25 1013.50 1013.66 1013.77 1013.83 1013.88 1013.93 1013.99 1014.09 1014.20 1014.34 1014.48 1014.64 1014.79 1014.95 1015.08 1015.20 1015.28
1006.83 1006.80 1006.88 1007.01 1007.10 1007.10 1006.93 1006.57 1006.05 1005.42 1004.79 1004.24 1003.87 1003.73 1003.83 1004.15 1004.64 1005.23 1005.87 1006.49 1007.07 1007.61 1008.14 1008.66 1009.20 1009.79 1010.41 1011.06 1011.68 1012.26 1012.74 1013.12 1013.38 1013.53 1013.62 1013.65 1013.68 1013.72 1013.78 1013.89 1014.03 1014.18 1014.35 1014.51 1014.66 1014.79 1014.91 1015.02 1015.09
1006.45 1006.55 1006.78 1007.05 1007.26 1007.31 1007.13 1006.71 1006.08 1005.33 1004.56 1003.91 1003.47 1003.29 1003.41 1003.77 1004.32 1004.97 1005.65 1006.29 1006.86 1007.37 1007.85 1008.33 1008.84 1009.43 1010.06 1010.73 1011.40 1012.01 1012.52 1012.91 1013.17 1013.31 1013.37 1013.38 1013.40 1013.43 1013.52 1013.65 1013.82 1013.99 1014.16 1014.32 1014.44 1014.54 1014.61 1014.68 1014.74
1006.07 1006.32 1006.71 1007.11 1007.41 1007.50 1007.30 1006.80 1006.07 1005.19 1004.32 1003.58 1003.09 1002.91 1003.06 1003.47 1004.09 1004.79 1005.50 1006.15 1006.70 1007.17 1007.60 1008.04 1008.52 1009.08 1009.71 1010.40 1011.08 1011.71 1012.24 1012.63 1012.87 1012.99 1013.03 1013.03 1013.04 1013.09 1013.20 1013.35 1013.55 1013.74 1013.91 1014.04 1014.11 1014.15 1014.16 1014.17 1014.20
1005.76 1006.19 1006.74 1007.27 1007.64 1007.73 1007.49 1006.91 1006.06 1005.07 1004.10 1003.29 1002.76 1002.58 1002.74 1003.20 1003.85 1004.59 1005.30 1005.94 1006.46 1006.89 1007.27 1007.66 1008.11 1008.65 1009.28 1009.98 1010.68 1011.33 1011.87 1012.26 1012.49 1012.60 1012.63 1012.62 1012.64 1012.70 1012.83 1013.02 1013.23 1013.43 1013.59 1013.67 1013.69 1013.66 1013.59 1013.54 1013.53
1005.60 1006.21 1006.91 1007.55 1007.97 1008.05 1007.75 1007.08 1006.11 1005.01 1003.93 1003.05 1002.48 1002.28 1002.43 1002.89 1003.54 1004.27 1004.96 1005.55 1006.03 1006.40 1006.73 1007.08 1007.51 1008.05 1008.71 1009.43 1010.16 1010.84 1011.41 1011.82 1012.06 1012.17 1012.20 1012.20 1012.22 1012.30 1012.46 1012.67 1012.90 1013.09 1013.23 1013.27 1013.22 1013.10 1012.96 1012.84 1012.79
1005.59 1006.38 1007.22 1007.93 1008.38 1008.43 1008.06 1007.28 1006.21 1005.00 1003.84 1002.88 1002.26 1002.01 1002.12 1002.53 1003.13 1003.79 1004.41 1004.93 1005.33 1005.65 1005.93 1006.26 1006.69 1007.25 1007.95 1008.72 1009.52 1010.26 1010.88 1011.33 1011.60 1011.74 1011.78 1011.80 1011.84 1011.94 1012.11 1012.34 1012.57 1012.77 1012.88 1012.88 1012.77 1012.59 1012.37 1012.18 1012.09
1005.68 1006.63 1007.57 1008.34 1008.78 1008.79 1008.35 1007.49 1006.33 1005.04 1003.81 1002.79 1002.10 1001.79 1001.83 1002.15 1002.65 1003.20 1003.70 1004.11 1004.41 1004.66 1004.90 1005.21 1005.66 1006.28 1007.04 1007.90 1008.78 1009.60 1010.30 1010.82 1011.15 1011.33 1011.41 1011.46 1011.52 1011.65 1011.84 1012.08 1012.32 1012.51 1012.60 1012.58 1012.42 1012.19 1011.91 1011.68 1011.55
1005.78 1006.84 1007.85 1008.64 1009.06 1009.02 1008.52 1007.61 1006.41 1005.08 1003.82 1002.77 1002.03 1001.65 1001.60 1001.80 1002.16 1002.56 1002.91 1003.19 1003.39 1003.55 1003.76 1004.07 1004.56 1005.23 1006.08 1007.03 1008.02 1008.94 1009.73 1010.34 1010.74 1010.99 1011.12 1011.21 1011.30 1011.45 1011.66 1011.92 1012.17 1012.37 1012.46 1012.43 1012.26 1012.00 1011.70 1011.42 1011.26
1005.80 1006.91 1007.93 1008.69 1009.07 1009.00 1008.47 1007.56 1006.37 1005.08 1003.85 1002.81 1002.07 1001.63 1001.49 1001.57 1001.77 1002.00 1002.20 1002.33 1002.42 1002.51 1002.68 1003.01 1003.53 1004.28 1005.21 1006.26 1007.34 1008.36 1009.25 1009.94 1010.43 1010.74 1010.93 1011.07 1011.20 1011.38 1011.62 1011.89 1012.16 1012.38 1012.50 1012.48 1012.33 1012.08 1011.77 1011.48 1011.29
1005.65 1006.74 1007.71 1008.41 1008.73 1008.64 1008.13 1007.27 1006.18 1004.99 1003.86 1002.91 1002.20 1001.76 1001.55 1001.52 1001.58 1001.66 1001.70 1001.71 1001.69 1001.72 1001.87 1002.20 1002.77 1003.57 1004.56 1005.68 1006.84 1007.94 1008.90 1009.67 1010.23 1010.61 1010.86 1011.05 1011.23 1011.45 1011.71 1012.02 1012.32 1012.57 1012.72 1012.75 1012.64 1012.42 1012.14 1011.86 1011.66
1005.29 1006.28 1007.13 1007.73 1008.02 1007.92 1007.48 1006.74 1005.82 1004.82 1003.87 1003.06 1002.45 1002.05 1001.83 1001.72 1001.67 1001.62 1001.54 1001.44 1001.35 1001.34 1001.47 1001.82 1002.41 1003.23 1004.26 1005.42 1006.61 1007.75 1008.75 1009.56 1010.17 1010.60 1010.91 1011.15 1011.38 1011.63 1011.94 1012.28 1012.61 1012.91 1013.12 1013.21 1013.17 1013.02 1012.78 1012.54 1012.33
1004.76 1005.57 1006.27 1006.76 1006.99 1006.94 1006.60 1006.04 1005.34 1004.59 1003.88 1003.28 1002.82 1002.50 1002.29 1002.16 1002.04 1001.91 1001.75 1001.59 1001.45 1001.42 1001.54 1001.89 1002.48 1003.32 1004.34 1005.48 1006.66 1007.78 1008.78 1009.60 1010.24 1010.71 1011.07 1011.35 1011.63 1011.93 1012.27 1012.65 1013.03 1013.38 1013.65 1013.81 1013.84 1013.77 1013.60 1013.41 1013.22
Thickness
5837 5841 5841 5837 5820 5809 5808 5826 5836 5832 5833 5842 5845 5839 5825 5815 5803 5789 5817 5827 5822 5813 5805 5799 5795 5792 5789 5787 5785 5783 5781 5779 5777 5776 5774 5773 5772 5771 5770 5769 5769 5768 5768 5768 5767 5767 5766 5765 5766
5842 5846 5842 5830 5808 5794 5803 5831 5830 5832 5840 5847 5845 5839 5826 5818 5823 5818 5821 5824 5822 5813 5805 5798 5794 5791 5788 5786 5784 5782 5780 5778 5776 5774 5773 5771 5770 5769 5768 5767 5766 5765 5766 5765 5764 5764 5764 5763 5764
5843 5847 5833 5823 5807 5801 5807 5830 5834 5841 5848 5845 5837 5835 5825 5817 5824 5822 5824 5826 5821 5812 5805 5797 5793 5790 5787 5785 5783 5781 5778 5776 5774 5773 5771 5770 5769 5767 5767 5766 5764 5763 5763 5763 5762 5762 5762 5762 5762
5843 5842 5834 5820 5806 5820 5828 5837 5843 5840 5843 5846 5838 5825 5825 5832 5830 5827 5828 5826 5819 5812 5805 5797 5792 5789 5787 5784 5782 5780 5777 5775 5773 5772 5770 5769 5768 5766 5765 5765 5764 5762 5762 5761 5761 5760 5760 5760 5761
5845 5831 5819 5811 5818 5832 5843 5849 5848 5838 5836 5839 5834 5818 5814 5829 5835 5831 5828 5825 5819 5813 5806 5797 5792 5789 5786 5784 5781 5779 5777 5775 5773 5771 5769 5768 5767 5765 5765 5763 5762 5761 5761 5760 5759 5759 5759 5759 5760
5832 5831 5810 5804 5820 5836 5846 5852 5848 5839 5837 5839 5833 5817 5813 5829 5829 5828 5828 5826 5822 5815 5806 5798 5792 5789 5786 5783 5781 5778 5776 5774 5772 5771 5769 5768 5767 5765 5764 5763 5762 5760 5760 5759 5759 5758 5758 5759 5759
5825 5819 5809 5813 5820 5828 5841 5853 5844 5838 5836 5838 5840 5819 5815 5824 5829 5831 5829 5826 5822 5816 5807 5800 5794 5790 5786 5784 5781 5779 5776 5774 5772 5771 5769 5768 5767 5766 5764 5763 5762 5760 5759 5759 5758 5758 5758 5758 5758
5841 5823 5812 5816 5818 5826 5845 5850 5850 5843 5836 5849 5846 5821 5811 5822 5832 5831 5828 5824 5820 5816 5810 5804 5798 5793 5789 5785 5782 5779 5777 5775 5773 5771 5770 5769 5768 5766 5765 5764 5762 5761 5760 5759 5759 5758 5758 5758 5758
5847 5817 5805 5818 5824 5830 5845 5843 5847 5854 5845 5844 5845 5837 5831 5833 5832 5826 5821 5818 5815 5812 5810 5806 5800 5796 5793 5789 5784 5781 5778 5775 5774 5772 5771 5770 5770 5768 5767 5765 5763 5761 5761 5760 5759 5759 5758 5758 5758
5836 5811 5816 5836 5840 5837 5842 5841 5843 5841 5834 5832 5832 5834 5835 5832 5827 5820 5815 5811 5809 5807 5808 5806 5801 5797 5795 5792 5786 5783 5780 5776 5775 5773 5772 5771 5770 5770 5768 5765 5764 5762 5761 5761 5760 5760 5758 5758 5758
5832 5820 5829 5840 5846 5843 5839 5840 5846 5835 5824 5828 5826 5826 5828 5827 5824 5820 5816 5813 5810 5808 5807 5805 5802 5798 5795 5792 5787 5784 5782 5778 5776 5774 5773 5772 5770 5769 5767 5765 5764 5763 5762 5761 5761 5760 5759 5759 5759
5829 5830 5837 5840 5846 5842 5839 5840 5838 5835 5831 5840 5837 5833 5829 5824 5822 5820 5816 5814 5811 5808 5805 5804 5802 5797 5794 5791 5788 5785 5783 5779 5777 5774 5773 5771 5770 5768 5767 5766 5764 5763 5762 5761 5761 5759 5759 5759 5759
5826 5829 5838 5843 5844 5842 5839 5833 5833 5834 5842 5844 5837 5832 5827 5825 5824 5823 5821 5816 5812 5807 5805 5803 5800 5796 5793 5790 5787 5784 5782 5780 5778 5775 5772 5771 5769 5767 5767 5766 5764 5763 5762 5762 5760 5759 5758 5758 5758
5830 5831 5835 5838 5839 5839 5831 5829 5828 5832 5842 5838 5831 5826 5827 5826 5824 5821 5818 5813 5810 5806 5804 5803 5799 5795 5791 5788 5785 5783 5781 5779 5777 5774 5771 5769 5768 5767 5765 5763 5762 5761 5761 5760 5759 5758 5757 5756 5756
5832 5822 5825 5831 5834 5835 5830 5814 5821 5833 5840 5832 5827 5827 5826 5824 5823 5819 5816 5813 5810 5806 5803 5800 5798 5794 5789 5786 5783 5782 5780 5778 5776 5773 5770 5767 5766 5764 5763 5761 5760 5759 5759 5758 5757 5756 5755 5754 5754
5821 5810 5804 5821 5831 5834 5819 5798 5823 5837 5834 5828 5826 5825 5822 5822 5821 5819 5818 5813 5810 5806 5801 5798 5797 5792 5788 5784 5781 5780 5778 5776 5774 5772 5769 5766 5764 5762 5760 5758 5758 5758 5757 5756 5754 5752 5751 5750 5749
5804 5795 5798 5811 5830 5830 5818 5804 5823 5836 5831 5824 5824 5822 5819 5817 5817 5816 5817 5813 5809 5804 5799 5794 5793 5789 5786 5782 5780 5778 5776 5773 5771 5769 5766 5764 5761 5760 5758 5757 5756 5755 5754 5753 5752 5750 5748 5746 5745
5791 5797 5801 5803 5822 5824 5814 5809 5822 5832 5828 5823 5823 5822 5818 5813 5812 5815 5815 5812 5807 5801 5797 5793 5790 5787 5784 5781 5777 5775 5773 5771 5769 5766 5764 5761 5759 5757 5756 5755 5754 5753 5751 5750 5749 5746 5746 5744 5743
5802 5800 5800 5807 5823 5816 5809 5809 5816 5826 5824 5821 5820 5818 5815 5812 5813 5813 5812 5809 5803 5798 5794 5790 5786 5784 5781 5777 5773 5769 5767 5766 5765 5764 5761 5759 5757 5755 5754 5752 5750 5749 5748 5746 5745 5743 5741 5740 5741
5798 5793 5796 5805 5817 5813 5806 5807 5818 5822 5823 5821 5818 5816 5813 5810 5808 5808 5808 5805 5800 5795 5792 5788 5784 5781 5779 5776 5773 5770 5767 5765 5763 5762 5759 5757 5755 5753 5752 5749 5747 5747 5745 5743 5742 5740 5737 5737 5738
5795 5794 5794 5796 5807 5813 5801 5794 5805 5816 5820 5820 5820 5820 5816 5810 5805 5803 5802 5802 5799 5794 5790 5787 5783 5780 5777 5775 5772 5770 5766 5763 5760 5758 5756 5754 5753 5751 5749 5747 5745 5744 5742 5739 5738 5736 5733 5731 5733
5790 5809 5805 5799 5791 5788 5795 5774 5792 5805 5806 5809 5813 5814 5813 5811 5807 5802 5799 5798 5797 5794 5791 5786 5782 5778 5776 5773 5769 5764 5759 5755 5755 5755 5754 5752 5751 5749 5747 5745 5743 5741 5739 5737 5735 5733 5731 5728 5725
5799 5812 5806 5801 5792 5784 5792 5780 5790 5803 5796 5800 5807 5809 5810 5810 5807 5802 5800 5796 5796 5794 5790 5785 5780 5776 5773 5771 5767 5762 5758 5756 5755 5754 5751 5749 5747 5746 5744 5743 5740 5738 5736 5734 5732 5729 5727 5725 5723
5807 5802 5799 5798 5790 5767 5784 5779 5782 5796 5797 5799 5803 5806 5805 5807 5805 5801 5800 5797 5793 5791 5787 5783 5777 5773 5771 5768 5764 5760 5756 5754 5751 5748 5746 5745 5744 5743 5741 5740 5738 5736 5734 5731 5729 5727 5724 5722 5720
5796 5777 5759 5754 5757 5764 5793 5784 5786 5803 5809 5807 5803 5803 5804 5804 5801 5796 5792 5790 5787 5784 5782 5779 5774 5769 5767 5764 5761 5758 5755 5752 5748 5746 5744 5742 5740 5738 5736 5736 5735 5733 5731 5729 5726 5723 5721 5719 5717
5785 5778 5754 5742 5751 5768 5781 5775 5788 5808 5811 5809 5807 5806 5802 5799 5797 5794 5791 5787 5783 5780 5776 5774 5770 5766 5764 5761 5758 5756 5752 5749 5746 5744 5742 5739 5738 5736 5734 5732 5731 5730 5728 5726 5723 5720 5718 5717 5714
5779 5777 5785 5768 5766 5761 5769 5779 5784 5800 5798 5797 5798 5798 5795 5794 5792 5790 5787 5784 5780 5776 5773 5771 5766 5763 5761 5758 5755 5752 5749 5746 5743 5741 5739 5737 5736 5734 5731 5729 5728 5726 5724 5721 5719 5716 5715 5713 5711
5790 5787 5777 5761 5744 5744 5760 5766 5765 5774 5782 5785 5783 5787 5788 5788 5788 5785 5782 5779 5777 5774 5771 5768 5764 5759 5757 5755 5752 5749 5746 5743 5741 5738 5735 5734 5732 5730 5728 5726 5724 5722 5719 5718 5716 5713 5712 5709 5708
5776 5775 5773 5769 5767 5747 5741 5752 5780 5777 5780 5781 5782 5785 5785 5783 5782 5779 5776 5775 5773 5770 5767 5763 5759 5756 5753 5751 5749 5745 5742 5740 5738 5734 5732 5730 5728 5726 5724 5722 5720 5717 5715 5713 5711 5709 5707 5705 5703
5781 5776 5770 5751 5750 5757 5750 5751 5787 5784 5784 5782 5782 5784 5783 5782 5780 5775 5771 5769 5766 5763 5760 5757 5755 5752 5749 5747 5744 5741 5739 5736 5732 5729 5728 5726 5724 5722 5720 5718 5715 5713 5711 5709 5707 5704 5703 5700 5697